Weather History for Jefferson City, MO

Change the Weather History Date:

Monday, April 8, 2013

  Actual Average Record
Temperature  
Mean Temperature 69 °F -  
Max Temperature 78 °F 66 °F 87 °F (1924)
Min Temperature 60 °F 39 °F 21 °F (1990)
Cooling Degree Days 4    
Growing Degree Days 19 (Base 50)    
Moisture  
Dew Point 55 °F    
Average Humidity 63    
Maximum Humidity 82    
Minimum Humidity 43    
Precipitation  
Precipitation 0.23 in - - ()
Sea Level Pressure  
Sea Level Pressure 29.72 in    
Wind  
Wind Speed 10 mph (South)    
Max Wind Speed 20 mph    
Max Gust Speed 34 mph    
Visibility 9 miles    
Events Rain , Thunderstorm    
Averages and records for this station are not official NWS values.
T = Trace of Precipitation, MM = Missing Value Source: NWS Daily Summary

Daily Weather History Graph

Daily Weather History Graph

Search for Another Location

Airport:

Trip Planner

Search our weather history database for the weather conditions in past years. The results will help you decide how hot, cold, wet, or windy it might be!

Date:

Astronomy

Apr. 08, 2013 Rise Set
Actual Time 6:42 AM CDT 7:38 PM CDT
Civil Twilight 6:15 AM CDT 8:06 PM CDT
Nautical Twilight 5:43 AM CDT 8:38 PM CDT
Astronomical Twilight 5:10 AM CDT 9:11 PM CDT
Moon 5:31 AM CDT (4/8) 6:14 PM CDT (4/8)
Length of Visible Light 13h 50m
Length of Day
12h 56m
Waning Crescent, 3% of the Moon is Illuminated
Apr 8
Waning Crescent
Apr 10
New
Apr 18
First Quarter
Apr 25
Full
May 2
Last Quarter

Hourly Weather History & Observations

Time (CDT) Temp. Dew Point Humidity Pressure Visibility Wind Dir Wind Speed Gust Speed Precip Events Conditions
12:53 AM 64.0 °F 54.0 °F 70% 29.72 in 10.0 mi South 13.8 mph 20.7 mph N/A   Overcast
1:53 AM 63.0 °F 54.0 °F 72% 29.69 in 10.0 mi South 16.1 mph 24.2 mph N/A   Overcast
2:53 AM 63.0 °F 54.0 °F 72% 29.69 in 10.0 mi South 12.7 mph - N/A   Clear
3:53 AM 63.0 °F 54.0 °F 72% 29.68 in 10.0 mi SSW 10.4 mph - N/A   Mostly Cloudy
4:08 AM 64.4 °F 53.6 °F 68% 29.71 in 10.0 mi South 12.7 mph - N/A Thunderstorm Thunderstorm
4:25 AM 62.6 °F 53.6 °F 72% 29.74 in 5.0 mi NW 8.1 mph - 0.04 in Rain Light Rain
4:30 AM 60.8 °F 55.4 °F 82% 29.74 in 2.0 mi Variable 5.8 mph - 0.20 in Rain , Thunderstorm Heavy Rain
4:46 AM 64.4 °F 53.6 °F 68% 29.73 in 8.0 mi West 9.2 mph 34.5 mph 0.23 in Rain , Thunderstorm Light Thunderstorms and Rain
4:53 AM 63.0 °F 55.0 °F 75% 29.70 in 9.0 mi Calm Calm - 0.23 in Rain Light Rain
5:53 AM 63.0 °F 54.0 °F 72% 29.69 in 10.0 mi South 4.6 mph - 0.00 in   Mostly Cloudy
6:53 AM 61.0 °F 53.1 °F 75% 29.70 in 10.0 mi SSW 3.5 mph - N/A   Clear
7:53 AM 62.1 °F 53.1 °F 72% 29.71 in 10.0 mi South 4.6 mph - N/A   Clear
8:53 AM 64.0 °F 54.0 °F 70% 29.73 in 10.0 mi SSW 8.1 mph 17.3 mph N/A   Clear
9:53 AM 68.0 °F 55.0 °F 63% 29.74 in 10.0 mi SSW 10.4 mph - N/A   Partly Cloudy
10:53 AM 70.0 °F 55.0 °F 59% 29.76 in 10.0 mi WSW 10.4 mph - N/A   Mostly Cloudy
11:53 AM 71.1 °F 55.9 °F 59% 29.75 in 10.0 mi South 3.5 mph - N/A   Mostly Cloudy
12:53 PM 73.9 °F 55.9 °F 53% 29.74 in 10.0 mi NNE 3.5 mph - N/A   Scattered Clouds
1:53 PM 77.0 °F 55.0 °F 47% 29.72 in 10.0 mi SE 6.9 mph - N/A   Partly Cloudy
2:53 PM 77.0 °F 53.1 °F 43% 29.71 in 10.0 mi SSE 16.1 mph 23.0 mph N/A   Scattered Clouds
3:53 PM 78.1 °F 55.0 °F 45% 29.70 in 10.0 mi SSE 16.1 mph 23.0 mph N/A   Partly Cloudy
4:53 PM 77.0 °F 55.0 °F 47% 29.70 in 10.0 mi South 10.4 mph - N/A   Partly Cloudy
5:53 PM 75.9 °F 55.0 °F 48% 29.70 in 10.0 mi SSE 9.2 mph - N/A   Mostly Cloudy
6:53 PM 73.9 °F 57.0 °F 55% 29.71 in 10.0 mi SE 8.1 mph - N/A   Overcast
7:53 PM 73.0 °F 55.9 °F 55% 29.72 in 10.0 mi ESE 9.2 mph - N/A   Overcast
8:53 PM 72.0 °F 55.9 °F 57% 29.74 in 10.0 mi ESE 10.4 mph - N/A   Overcast
9:53 PM 72.0 °F 57.9 °F 61% 29.78 in 9.0 mi SSW 19.6 mph 27.6 mph N/A   Overcast
10:53 PM 70.0 °F 57.9 °F 65% 29.79 in 10.0 mi SSE 5.8 mph - N/A   Overcast
11:53 PM 70.0 °F 57.0 °F 63% 29.79 in 10.0 mi SSE 11.5 mph - N/A   Overcast